This is the latest recevied weather packets stored in our database for station/object SQ7IQO. If no packets are shown the sender has not sent any weather packets the latest 10 day(s).
| Time | Temp. | Humidity | Pressure | Rain* | Wind** | Luminosity | Snow |
|---|---|---|---|---|---|---|---|
| 1788075523 | 22.22° C | 64% | 1017.1 hPa | 0 mm | 0 m/s | - | - |
| 1788075463 | 22.22° C | 64% | 1046.7 hPa | 0 mm | 0 m/s | - | - |
| 1788075403 | 22.22° C | 63% | 1017.1 hPa | 0 mm | 0 m/s | - | - |
| 1788075343 | 22.22° C | 63% | 1017.1 hPa | 0 mm | 0 m/s | - | - |
| 1788075283 | 22.78° C | 60% | 1017.2 hPa | 0 mm | 0 m/s | - | - |
| 1788075223 | 22.78° C | 61% | 1017.1 hPa | 0 mm | 0 m/s | - | - |
| 1788075163 | 22.22° C | 63% | 1017.1 hPa | 0 mm | 0 m/s | - | - |
| 1788075103 | 22.22° C | 63% | 1017.2 hPa | 0 mm | 0 m/s | - | - |
| 1788075043 | 22.22° C | 61% | 1017.2 hPa | 0 mm | 0 m/s | - | - |
| 1788074983 | 22.22° C | 63% | 1017.1 hPa | 0 mm | 0 m/s | - | - |
| 1788074923 | 22.22° C | 62% | 1017.1 hPa | 0 mm | 0 m/s | - | - |
| 1788074863 | 22.78° C | 63% | 1017.2 hPa | 0 mm | 0 m/s | - | - |
| 1788074803 | 22.22° C | 65% | 1017.1 hPa | 0 mm | 0 m/s | - | - |
| 1788074743 | 21.67° C | 64% | 1017.2 hPa | 0 mm | 0 m/s | - | - |
| 1788074683 | 21.67° C | 66% | 1017.2 hPa | 0 mm | 0 m/s | - | - |
| 1788074623 | 21.11° C | 66% | 1017.2 hPa | 0 mm | 0 m/s | - | - |
| 1788074563 | 21.11° C | 68% | 1017.1 hPa | 0 mm | 0 m/s | - | - |
| 1788074503 | 21.11° C | 68% | 1017.1 hPa | 0 mm | 0 m/s | - | - |
| 1788074443 | 20.56° C | 70% | 1017.2 hPa | 0 mm | 0 m/s | - | - |
| 1788074383 | 20.56° C | 70% | 1017.2 hPa | 0 mm | 0 m/s | - | - |
| 1788074323 | 20° C | 71% | 1017.2 hPa | 0 mm | 0 m/s | - | - |
| 1788074263 | 20° C | 72% | 1017.1 hPa | 0 mm | 0 m/s | - | - |
| 1788074203 | 19.44° C | 73% | 1017.2 hPa | 0 mm | 0 m/s | - | - |
| 1788074143 | 19.44° C | 73% | 1017.1 hPa | 0 mm | 0 m/s | - | - |
| 1788074083 | 18.89° C | 73% | 1017.1 hPa | 0 mm | 0 m/s | - | - |
* Rain latest hour (hover to see other rain measurements)
** Current wind speed in m/s (hover to see current wind gust speed)